FW3296 Weather Reports


Display with metric or nautical units.
time (UTC)temp
F
wind
direction
speed
MPH
gust
MPH
rain 1hr
in
rain 24hr
in
rain mn
in
humidity
%
barometer
mb
20260502163515 52 77 2.0 4.0 0.06 0.51 0.51 97 1012.8
20260502162515 52 77 1.0 4.0 0.06 0.50 0.50 97 1013.0
20260502161515 51 70 2.0 6.0 0.07 0.50 0.50 97 1013.0
20260502160515 51 67 2.0 6.0 0.09 0.49 0.49 97 1013.0
20260502151515 51 108 4.0 10.0 0.17 0.43 0.43 96 1013.5
20260502150515 51 116 4.0 10.0 0.19 0.40 0.40 96 1013.6
20260502130515 56 117 5.0 9.0 0.00 0.02 0.02 89 1014.2
20260502123515 57 112 2.0 5.0 0.00 0.02 0.02 91 1014.6
20260502122515 57 70 1.0 6.0 0.01 0.02 0.02 92 1014.6
20260502121537 57 61 1.0 4.0 0.02 0.02 0.02 93 1014.7
20260502120516 56 62 1.0 5.0 0.02 0.02 0.02 93 1014.9
20260502115537 56 105 1.0 5.0 0.02 0.02 0.02 93 1015.0
20260502114516 56 120 2.0 4.0 0.02 0.02 0.02 93 1015.1
20260502113516 56 121 2.0 7.0 0.02 0.02 0.02 92 1015.3
20260502112516 56 128 3.0 7.0 0.02 0.02 0.02 92 1015.5
20260502111516 56 140 2.0 7.0 0.01 0.01 0.01 91 1015.7
20260502110516 56 141 4.0 7.0 0.01 0.01 0.01 91 1015.9
20260502105516 56 118 4.0 8.0 0.01 0.01 0.01 90 1016.1
20260502104516 56 124 3.0 7.0 0.00 0.00 0.00 89 1016.2
20260502103516 55 176 2.0 7.0 0.00 0.00 0.00 88 1016.2
20260502102516 55 169 3.0 9.0 0.00 0.00 0.00 87 1016.5
20260502101516 54 183 3.0 8.0 0.00 0.00 0.00 88 1016.5
20260502100536 54 186 3.0 7.0 0.00 0.00 0.00 89 1016.6
20260502091516 54 175 4.0 8.0 0.00 0.00 0.00 91 1016.7
20260502090516 54 155 4.0 8.0 0.00 0.00 0.00 92 1016.7
20260502071516 51 169 5.0 10.0 0.00 0.00 0.00 98 1017.5
20260502070516 51 175 3.0 8.0 0.00 0.00 0.00 98 1017.5
20260502065556 50 171 4.0 9.0 0.00 0.00 0.00 98 1017.6
20260502064516 50 170 5.0 9.0 0.00 0.00 0.00 98 1017.7
20260502063516 50 149 3.0 9.0 0.00 0.00 0.00 98 1017.6
20260502062516 50 143 3.0 9.0 0.00 0.00 0.00 98 1017.6
20260502061516 50 131 5.0 11.0 0.00 0.00 0.00 98 1017.7
20260502060516 50 136 4.0 8.0 0.00 0.00 0.00 98 1017.7
20260502055536 49 131 3.0 9.0 0.00 0.00 0.00 98 1017.7
20260502054516 49 134 3.0 8.0 0.00 0.00 0.00 98 1017.8
20260502053516 49 138 3.0 9.0 0.00 0.00 0.00 97 1018.1
20260502052516 49 133 5.0 10.0 0.00 0.00 0.00 98 1018.1
20260502051516 49 140 3.0 8.0 0.00 0.00 0.00 98 1018.2
20260502050516 49 140 4.0 9.0 0.00 0.00 0.00 97 1018.2
20260502045536 50 144 3.0 9.0 0.00 0.00 0.00 97 1018.3
20260502044516 50 182 3.0 7.0 0.00 0.00 0.00 97 1018.4
20260502043516 50 168 4.0 8.0 0.00 0.00 0.00 97 1018.4
20260502042516 50 174 3.0 5.0 0.00 0.00 0.00 97 1018.4
20260502041516 49 199 2.0 5.0 0.00 0.00 0.00 98 1018.7
20260502040516 48 233 1.0 3.0 0.00 0.00 0.00 97 1018.7
20260502035518 48 234 1.0 2.0 0.00 0.00 0.00 97 1018.8
20260502034519 48 234 1.0 3.0 0.00 0.00 0.00 97 1018.8
20260502033519 48 234 1.0 4.0 0.00 0.00 0.00 96 1018.9
20260502032518 49 232 1.0 3.0 0.00 0.00 0.00 96 1018.9
20260502031518 49 231 1.0 2.0 0.00 0.00 0.00 96 1018.9
20260502030518 49 231 0.0 2.0 0.00 0.00 0.00 96 1019.0
20260502025519 48 0.0 0.0 0.00 0.00 0.00 96 1019.0
20260502024519 49 0.0 0.0 0.00 0.00 0.00 96 1019.0
20260502023519 49 232 0.0 1.0 0.00 0.00 0.00 96 1019.0
20260502022518 49 228 0.0 3.0 0.00 0.00 0.00 96 1019.2
20260502021518 49 227 1.0 3.0 0.00 0.00 0.00 96 1019.3
20260502020541 48 229 2.0 4.0 0.00 0.00 0.00 96 1019.5
20260502015518 48 238 0.0 1.0 0.00 0.00 0.00 96 1019.7
20260502014518 48 238 0.0 2.0 0.00 0.00 0.00 96 1019.7
20260502013518 48 0.0 0.0 0.00 0.00 0.00 96 1019.8
20260502012518 49 0.0 1.0 0.00 0.00 0.00 96 1019.9
20260502011518 49 0.0 1.0 0.00 0.00 0.00 96 1020.0
20260502010541 49 238 0.0 2.0 0.00 0.00 0.00 96 1020.1
20260502005518 50 238 0.0 1.0 0.00 0.00 0.00 96 1020.3
20260502004518 50 238 0.0 1.0 0.00 0.00 0.00 96 1020.5
20260502003518 50 238 1.0 3.0 0.00 0.00 0.00 96 1020.5
20260502002518 50 238 0.0 2.0 0.00 0.00 0.00 96 1020.5
20260502001518 50 238 1.0 2.0 0.00 0.00 0.00 96 1020.7
20260502000541 49 238 0.0 2.0 0.00 0.00 0.00 95 1020.7
20260501235518 50 238 0.0 2.0 0.00 0.00 0.00 96 1020.8
20260501234541 50 238 2.0 3.0 0.00 0.00 0.00 95 1020.8
20260501233541 49 238 0.0 1.0 0.00 0.00 0.00 95 1020.9
20260501232541 49 238 0.0 1.0 0.00 0.00 0.00 95 1020.9
20260501231518 49 0.0 0.0 0.00 0.00 0.00 95 1020.8
20260501230518 49 238 0.0 1.0 0.00 0.00 0.00 95 1020.8
20260501225516 49 0.0 0.0 0.00 0.00 0.00 95 1020.9
20260501224605 50 0.0 0.0 0.00 0.00 0.00 95 1021.0
20260501223519 50 0.0 0.0 0.00 0.00 0.00 95 1021.0
20260501222519 50 238 0.0 2.0 0.00 0.00 0.00 95 1021.1
20260501221542 50 238 0.0 3.0 0.00 0.00 0.00 95 1021.2
20260501220542 50 238 1.0 3.0 0.00 0.00 0.00 94 1021.2
20260501215542 51 238 0.0 3.0 0.00 0.00 0.00 94 1021.2
20260501214519 51 238 1.0 4.0 0.00 0.00 0.00 94 1021.3
20260501213518 51 238 2.0 4.0 0.00 0.00 0.00 94 1021.3
20260501212519 52 238 2.0 4.0 0.00 0.00 0.00 93 1021.5
20260501211518 52 238 2.0 4.0 0.00 0.00 0.00 93 1021.5
20260501210518 52 238 2.0 5.0 0.00 0.00 0.00 92 1021.4
20260501205541 53 239 2.0 4.0 0.00 0.00 0.00 92 1021.4
20260501204519 53 238 2.0 4.0 0.00 0.00 0.00 91 1021.4
20260501203518 53 239 1.0 3.0 0.00 0.00 0.00 91 1021.2
20260501202519 53 239 2.0 4.0 0.00 0.00 0.00 91 1021.1
20260501201519 53 239 1.0 3.0 0.00 0.00 0.00 91 1021.0
20260501200518 53 239 2.0 4.0 0.00 0.00 0.00 90 1020.8
20260501195539 53 240 2.0 5.0 0.00 0.00 0.00 90 1020.7
20260501194515 53 240 2.0 5.0 0.00 0.00 0.00 90 1020.5
20260501193518 54 240 2.0 5.0 0.00 0.00 0.00 89 1020.5
20260501192518 54 241 2.0 5.0 0.00 0.00 0.00 88 1020.5
20260501191518 54 242 2.0 5.0 0.00 0.00 0.00 88 1020.5
20260501190518 55 242 2.0 8.0 0.00 0.00 0.00 87 1020.5
20260501185518 55 230 3.0 8.0 0.00 0.00 0.00 87 1020.4
20260501184518 55 246 3.0 8.0 0.00 0.00 0.00 86 1020.4
20260501183541 56 249 3.0 7.0 0.00 0.00 0.00 86 1020.5
20260501182518 56 236 4.0 8.0 0.00 0.00 0.00 84 1020.5
20260501181518 57 229 4.0 9.0 0.00 0.00 0.00 84 1020.5
20260501180518 57 230 4.0 9.0 0.00 0.00 0.00 83 1020.5
20260501175518 58 264 4.0 9.0 0.00 0.00 0.00 82 1020.4
20260501174518 58 276 5.0 9.0 0.00 0.00 0.00 80 1020.4
20260501173518 58 248 4.0 9.0 0.00 0.00 0.00 80 1020.4
20260501172519 59 267 6.0 10.0 0.00 0.00 0.00 78 1020.4